[[{"header":{"parameterUnit":"m.s-1","parameterCategory":1,"la1":30.2991,"la2":30.254,"lo1":-89.0895,"lo2":-89.0444,"dy":0.0017,"dx":0.0017,"nx":28,"ny":28,"refTime":"2025-08-31T21:00:00:Z","depth":0,"parameterNumber":2,"parameterNumberName":"U-component_of_WINDS"},"data":[0,0,0,0,0,0,0,0,0,0,0,0,0,0,0,0,0,0,0,0,0,0,0,0,0,0,0,0,0,0,0,0,0,0,0,0,0,0,0,0,0,0,0,0,0,0,0,0,0,0,0,0,0,0,0,0,0,0,-5.4216,-5.4216,0,-5.4234,-5.4234,-5.4234,-5.4049,-5.4044,-5.4039,-5.4034,-5.4053,-5.4058,-5.4063,0,0,0,0,0,0,0,0,0,0,0,0,0,-5.4022,-5.4026,-5.4216,-5.4216,-5.4217,-5.4234,-5.4234,-5.4234,-5.405,-5.4044,-5.4038,-5.4032,-5.4051,-5.4057,-5.4064,0,0,0,0,0,0,0,0,0,0,0,0,0,-5.408,-5.4028,-5.4216,-5.4127,-5.4119,-5.4234,-5.4234,-5.4235,-5.4052,-5.4044,-5.4036,-5.4029,-5.4049,-5.4057,-5.4065,-5.4266,0,0,-5.4089,-5.4092,0,0,0,0,0,0,0,0,-5.4077,-5.4087,-5.414,-5.4133,-5.4125,-5.4132,-5.4172,-5.4245,-5.4054,-5.4077,-5.4034,-5.4025,-5.4085,-5.409,-5.411,-5.4267,-5.4268,-5.4089,-5.4094,-5.4097,-5.41,0,0,0,0,0,0,0,-5.4073,-5.4085,-5.4223,-5.4141,-5.4132,-5.4085,-5.4085,-5.4185,-5.4124,-5.4075,-5.4061,-5.4066,-5.408,-5.4103,-5.4109,-5.4268,-5.4089,-5.4096,-5.4101,-5.4104,-5.4588,-5.4595,0,0,0,0,0,0,-5.4081,-5.4083,-5.4223,-5.4224,-5.4081,-5.4095,-5.4095,-5.4137,-5.4122,-5.4113,-5.4072,-5.4057,-5.4093,-5.41,-5.4109,-5.434,-5.4097,-5.4105,-5.4109,-5.458,-5.459,-5.4598,0,0,0,0,0,0,-5.4077,-5.4095,-5.4222,-5.415,-5.4162,-5.4107,-5.4156,-5.4142,-5.4164,-5.4121,-5.4109,-5.4107,-5.4087,-5.4098,-5.4227,-5.4339,-5.4108,-5.4115,-5.457,-5.4583,-5.4594,-5.4808,0,0,0,0,0,0,-5.4073,-5.4095,-5.4171,-5.4153,-5.4167,-5.4341,-5.4163,-5.4147,-5.4178,-5.4159,-5.415,-5.4141,-5.4082,-5.4217,-5.4235,-5.4345,-5.4122,-5.456,-5.4576,-5.459,-5.4791,-5.4826,-5.4856,0,0,0,0,0,-5.4066,-5.4232,-5.4176,-5.4194,-5.4261,-5.4348,-5.4356,-5.4284,-5.4188,-5.4264,-5.4235,-5.4142,-5.4325,-5.4232,-5.4251,-5.4365,-5.4552,-5.4571,-5.4589,-5.4776,-5.4819,-5.4856,0,0,0,0,0,0,-5.4265,-5.4228,-5.4165,-5.433,-5.4344,-5.4317,-5.441,-5.4333,-5.4374,-5.4354,-5.4263,-5.4263,-5.4407,-5.4399,-5.4297,-5.4558,-5.4421,-5.4444,-5.4557,-5.4598,-5.463,-5.4627,-5.4128,0,0,0,0,0,-5.4328,-5.4402,-5.4365,-5.4514,-5.4523,-5.4466,-5.4501,-5.4445,-5.4455,-5.446,-5.4441,-5.4455,-5.4515,-5.4556,-5.4609,-5.479,-5.4784,-5.4878,-5.4911,-5.4938,-5.4958,-5.505,-5.509,-5.4658,-5.4658,-5.4658,0,0,-5.4458,-5.4447,-5.4499,-5.4553,-5.4557,-5.4634,-5.4472,-5.4562,-5.4618,-5.4474,-5.4593,-5.4581,-5.459,-5.4746,-5.4813,-5.4743,-5.5076,-5.4961,-5.4983,-5.4988,-5.5073,-5.5113,-5.515,-5.4671,-5.4669,-5.4667,0,0,-5.4735,-5.4735,-5.4857,-5.4864,-5.4872,-5.4833,-5.4863,-5.4847,-5.4833,-5.4952,-5.4845,-5.4911,-5.5017,-5.5027,-5.5046,-5.5327,-5.5241,-5.5347,-5.5517,-5.5607,-5.5641,-5.5671,-5.5768,-5.5804,-5.5368,-5.5368,-5.5368,0,-5.4895,-5.5008,-5.493,-5.5026,-5.5051,-5.4925,-5.5047,-5.5058,-5.5083,-5.5104,-5.5026,-5.5155,-5.5152,-5.5306,-5.5375,-5.5396,-5.5425,-5.5345,-5.5643,-5.5672,-5.5698,-5.5789,-5.5826,-5.5381,-5.5379,-5.5378,-5.5377,0,-5.5204,-5.5284,-5.5381,-5.5408,-5.5445,-5.5554,-5.5491,-5.5539,-5.548,-5.5449,-5.5571,-5.5564,-5.5612,-5.5645,-5.5589,-5.5791,-5.5747,-5.5659,-5.5518,-5.5753,-5.5837,-5.5872,-5.5399,-5.5394,-5.539,-5.5387,0,0,-5.5604,-5.5585,-5.5622,-5.5631,-5.5631,-5.569,-5.5794,-5.584,-5.5881,-5.5903,-5.5985,-5.6078,-5.5995,-5.6017,-5.5961,-5.6041,-5.626,-5.5941,-5.594,-5.5997,-5.6479,-5.6543,-5.6585,-5.6204,-5.6211,-5.6216,-5.6477,0,-5.587,-5.6043,-5.5975,-5.6154,-5.6225,-5.6107,-5.6196,-5.6205,-5.6179,-5.6235,-5.6206,-5.6272,-5.6159,-5.6171,-5.6246,-5.6218,-5.6354,-5.6198,-5.6278,-5.6282,-5.6275,-5.6629,-5.6698,-5.6944,-5.6509,-5.6515,-5.6519,0,-5.6203,-5.6237,-5.6423,-5.6407,-5.6435,-5.6516,-5.6552,-5.6609,-5.6616,-5.6592,-5.6617,-5.6543,-5.6641,-5.6505,-5.6639,-5.6534,-5.6563,-5.6554,-5.6562,-5.6564,-5.6412,-5.6637,-5.7021,-5.7057,-5.6571,-5.6566,-5.6563,0,-5.6471,-5.6564,-5.6686,-5.6699,-5.6685,-5.6745,-5.6742,-5.6742,-5.6774,-5.6806,-5.6825,-5.687,-5.6893,-5.6929,-5.6868,-5.6775,-5.701,-5.6869,-5.699,-5.6992,-5.7041,-5.7038,-5.7432,-5.7068,-5.7067,-5.7066,-5.7066,0,-5.6772,-5.689,-5.6806,-5.6881,-5.7008,-5.693,-5.7059,-5.7043,-5.7044,-5.7113,-5.7015,-5.7081,-5.6999,-5.7058,-5.7012,-5.7128,-5.7141,-5.7122,-5.7107,-5.7128,-5.713,-5.7143,-5.7123,-5.7076,-5.7074,-5.7072,-5.707,0,-5.7092,-5.7041,-5.7165,-5.7143,-5.714,-5.7235,-5.7214,-5.7282,-5.725,-5.7338,-5.7355,-5.7304,-5.7368,-5.7312,-5.7375,-5.7343,-5.7496,-5.746,-5.7494,-5.7482,-5.7604,-5.7592,-5.8017,-5.8067,-5.7675,-5.7678,-5.7682,0,-5.7286,-5.7373,-5.7359,-5.7398,-5.7401,-5.7466,-5.7497,-5.7424,-5.7461,-5.7476,-5.7542,-5.7598,-5.7638,-5.7746,-5.7714,-5.7761,-5.7722,-5.7868,-5.7728,-5.7746,-5.7719,-5.7713,-5.772,-5.7895,-5.79,-5.7904,-5.7907,0,-5.7634,-5.7604,-5.7653,-5.7694,-5.7735,-5.7764,-5.7784,-5.7822,-5.7747,-5.7794,-5.7857,-5.7889,-5.7952,-5.8008,-5.8044,-5.8041,-5.7961,-5.7952,-5.7981,-5.8001,-5.8016,-5.8006,-5.7566,-5.7941,-5.7938,-5.7935,-5.7933,-5.7932,-5.7893,-5.7964,-5.7965,-5.8023,-5.8031,-5.8053,-5.8114,-5.809,-5.8142,-5.8186,-5.8141,-5.8218,-5.8222,-5.8263,-5.8269,-5.8328,-5.8267,-5.8311,-5.8321,-5.8332,-5.8348,-5.801,-5.8335,-5.8334,-5.8333,-5.8332,-5.8331,0,-5.8233,-5.8227,-5.8282,-5.8313,-5.8359,-5.8281,-5.83,-5.8343,-5.8412,-5.8423,-5.8464,-5.8537,-5.8591,-5.8564,-5.861,-5.8663,-5.8627,-5.8677,-5.867,-5.867,-5.8402,-5.837,-5.8705,-5.8705,-5.8704,-5.8704,-5.8704,-5.8704,-5.8414,-5.8529,-5.8499,-5.8617,-5.861,-5.8685,-5.8702,-5.8721,-5.8729,-5.8814,-5.8858,-5.8841,-5.8836,-5.8881,-5.8926,-5.8917,-5.8937,-5.9,-5.8977,-5.8726,-5.8689,-5.8654,-5.8623,-5.9006,-5.9006,-5.9239,-5.9241,-5.9243]},{"header":{"parameterUnit":"m.s-1","parameterCategory":1,"la1":30.2991,"la2":30.254,"lo1":-89.0895,"lo2":-89.0444,"dy":0.0017,"dx":0.0017,"nx":28,"ny":28,"refTime":"2025-08-31T21:00:00:Z","depth":0,"parameterNumber":3,"parameterNumberName":"V-component_of_WINDS"},"data":[0,0,0,0,0,0,0,0,0,0,0,0,0,0,0,0,0,0,0,0,0,0,0,0,0,0,0,0,0,0,0,0,0,0,0,0,0,0,0,0,0,0,0,0,0,0,0,0,0,0,0,0,0,0,0,0,0,0,-1.0106,-1.0106,0,-1.0132,-1.0133,-1.0133,-1.0156,-1.0156,-1.0156,-1.0156,-1.0184,-1.0184,-1.0185,0,0,0,0,0,0,0,0,0,0,0,0,0,-1.0073,-1.0074,-1.0106,-1.0106,-1.0107,-1.0132,-1.0133,-1.0133,-1.0156,-1.0156,-1.0156,-1.0157,-1.0184,-1.0184,-1.0185,0,0,0,0,0,0,0,0,0,0,0,0,0,-1.0092,-1.0074,-1.0106,-1.0121,-1.0123,-1.0132,-1.0133,-1.0133,-1.0156,-1.0156,-1.0156,-1.0157,-1.0183,-1.0184,-1.0185,-1.0182,0,0,-1.0187,-1.0187,0,0,0,0,0,0,0,0,-1.0091,-1.0094,-1.0118,-1.012,-1.0122,-1.0141,-1.0131,-1.0149,-1.0155,-1.0143,-1.0156,-1.0157,-1.0169,-1.0171,-1.0175,-1.0183,-1.0184,-1.0187,-1.0188,-1.0188,-1.0188,0,0,0,0,0,0,0,-1.009,-1.0093,-1.0116,-1.0119,-1.0121,-1.0126,-1.0129,-1.0135,-1.0154,-1.0144,-1.0146,-1.0149,-1.017,-1.0175,-1.0176,-1.0185,-1.0187,-1.0188,-1.0188,-1.0189,-1.0188,-1.0188,0,0,0,0,0,0,-1.0086,-1.0091,-1.0116,-1.0117,-1.0107,-1.0126,-1.013,-1.0134,-1.0154,-1.0157,-1.0148,-1.015,-1.0173,-1.0175,-1.0177,-1.0173,-1.0188,-1.0189,-1.0189,-1.0189,-1.0188,-1.0188,0,0,0,0,0,0,-1.0086,-1.0088,-1.0114,-1.0105,-1.0108,-1.0126,-1.0132,-1.0135,-1.0139,-1.0157,-1.016,-1.0149,-1.0173,-1.0176,-1.018,-1.0175,-1.0189,-1.019,-1.0189,-1.0189,-1.0188,-1.0167,0,0,0,0,0,0,-1.0085,-1.0088,-1.0088,-1.0104,-1.0109,-1.0117,-1.0131,-1.0135,-1.014,-1.0142,-1.0159,-1.0162,-1.0174,-1.0179,-1.0181,-1.0176,-1.019,-1.019,-1.0189,-1.0188,-1.0168,-1.0165,-1.0163,0,0,0,0,0,-1.0083,-1.0081,-1.0088,-1.009,-1.0109,-1.0117,-1.0119,-1.0133,-1.014,-1.0139,-1.015,-1.0161,-1.0175,-1.0179,-1.0181,-1.0177,-1.019,-1.0189,-1.0188,-1.0169,-1.0166,-1.0163,0,0,0,0,0,0,-1.0064,-1.0084,-1.0091,-1.0094,-1.0104,-1.0121,-1.0121,-1.013,-1.0138,-1.014,-1.0156,-1.016,-1.0161,-1.0169,-1.0174,-1.0173,-1.0184,-1.0183,-1.0168,-1.0165,-1.0163,-1.0161,-1.0191,0,0,0,0,0,-1.006,-1.0065,-1.0082,-1.0083,-1.0087,-1.0103,-1.0107,-1.0117,-1.0127,-1.0131,-1.0143,-1.0152,-1.0158,-1.0162,-1.0169,-1.0169,-1.0172,-1.0167,-1.0164,-1.0162,-1.0162,-1.016,-1.0157,-1.0185,-1.0185,-1.0185,0,0,-1.0052,-1.0064,-1.0066,-1.008,-1.0088,-1.0092,-1.0106,-1.0111,-1.0114,-1.0132,-1.0136,-1.0144,-1.0156,-1.0157,-1.0158,-1.0164,-1.0154,-1.0161,-1.0159,-1.016,-1.0159,-1.0156,-1.0154,-1.0184,-1.0184,-1.0184,0,0,-1.004,-1.005,-1.0051,-1.0058,-1.007,-1.008,-1.008,-1.0095,-1.0101,-1.0105,-1.0118,-1.0121,-1.0132,-1.014,-1.0145,-1.0131,-1.0141,-1.0133,-1.0121,-1.0119,-1.0117,-1.0115,-1.0109,-1.0107,-1.0132,-1.0132,-1.0132,0,-1.0029,-1.0036,-1.005,-1.0053,-1.0058,-1.0073,-1.0074,-1.008,-1.0094,-1.0097,-1.0103,-1.0115,-1.0124,-1.0126,-1.0122,-1.0126,-1.0126,-1.0132,-1.0116,-1.0114,-1.0113,-1.0107,-1.0105,-1.0131,-1.0131,-1.0131,-1.0131,0,-1.0021,-1.0026,-1.0025,-1.0037,-1.0041,-1.0043,-1.0056,-1.0059,-1.0067,-1.0076,-1.0079,-1.009,-1.0098,-1.0099,-1.0108,-1.0102,-1.0104,-1.0113,-1.0124,-1.0109,-1.0104,-1.0102,-1.0129,-1.013,-1.013,-1.0131,0,0,-1.0,-1.0017,-1.0017,-1.0021,-1.0034,-1.0037,-1.0039,-1.0046,-1.0048,-1.0056,-1.0057,-1.0064,-1.0071,-1.0077,-1.0086,-1.0084,-1.0071,-1.0093,-1.0093,-1.0088,-1.0063,-1.0057,-1.0054,-1.0078,-1.0077,-1.0077,-1.0062,0,-0.9989,-0.9993,-1.0004,-1.0004,-1.0008,-1.0021,-1.0022,-1.0029,-1.0037,-1.004,-1.0048,-1.0053,-1.0062,-1.0065,-1.0064,-1.0073,-1.0067,-1.0074,-1.0078,-1.0078,-1.0075,-1.0052,-1.0046,-1.0031,-1.006,-1.006,-1.006,0,-0.9979,-0.9984,-0.9985,-0.9995,-0.9997,-0.9998,-1.0004,-1.0007,-1.0015,-1.002,-1.0025,-1.0035,-1.0036,-1.0045,-1.0046,-1.0051,-1.0053,-1.0057,-1.0057,-1.0058,-1.0068,-1.0052,-1.0027,-1.0024,-1.0057,-1.0057,-1.0058,0,-0.9962,-0.997,-0.997,-0.9974,-0.9986,-0.9986,-0.9991,-0.9999,-1.0002,-1.0007,-1.0009,-1.0015,-1.0018,-1.0021,-1.0031,-1.0038,-1.003,-1.0041,-1.0034,-1.0034,-1.0033,-1.0033,-1.0007,-1.0034,-1.0034,-1.0034,-1.0034,0,-0.9949,-0.9949,-0.9963,-0.9963,-0.9962,-0.9974,-0.9972,-0.9978,-0.9985,-0.9986,-0.9998,-0.9998,-1.0012,-1.0014,-1.0022,-1.002,-1.0022,-1.0025,-1.0028,-1.0024,-1.0024,-1.0026,-1.0027,-1.0034,-1.0034,-1.0034,-1.0034,0,-0.9931,-0.9941,-0.9942,-0.9953,-0.9955,-0.9954,-0.9962,-0.9963,-0.9969,-0.997,-0.9971,-0.9982,-0.9985,-0.9995,-1.0001,-1.0006,-1.0001,-1.0006,-0.9999,-1.0,-0.9992,-0.9992,-0.9967,-0.9964,-0.9993,-0.9993,-0.9992,0,-0.9923,-0.9922,-0.9932,-0.9933,-0.9937,-0.9939,-0.9942,-0.9952,-0.9954,-0.9961,-0.996,-0.9963,-0.9967,-0.9969,-0.9978,-0.9981,-0.9985,-0.9976,-0.9986,-0.9982,-0.9984,-0.9984,-0.9984,-0.9974,-0.9974,-0.9974,-0.9973,0,-0.9906,-0.991,-0.9913,-0.9917,-0.9919,-0.9923,-0.9927,-0.9927,-0.9939,-0.994,-0.9942,-0.9944,-0.9948,-0.9951,-0.9955,-0.996,-0.9968,-0.997,-0.9968,-0.9965,-0.9961,-0.9962,-0.9992,-0.9971,-0.9971,-0.9971,-0.9971,-0.9971,-0.9893,-0.9892,-0.9898,-0.99,-0.9904,-0.9907,-0.9907,-0.9913,-0.9915,-0.9918,-0.9924,-0.9925,-0.993,-0.9937,-0.994,-0.994,-0.9945,-0.9943,-0.9943,-0.9942,-0.994,-0.996,-0.9941,-0.9941,-0.9941,-0.9941,-0.9942,0,-0.9876,-0.988,-0.9882,-0.9886,-0.9887,-0.9894,-0.9898,-0.9899,-0.9899,-0.9903,-0.9905,-0.9906,-0.9908,-0.9915,-0.9917,-0.9916,-0.9919,-0.9916,-0.9916,-0.9917,-0.9936,-0.9937,-0.9913,-0.9913,-0.9913,-0.9913,-0.9913,-0.9913,-0.9868,-0.9867,-0.987,-0.987,-0.9874,-0.9874,-0.9876,-0.9878,-0.9881,-0.9881,-0.9882,-0.9887,-0.9892,-0.9894,-0.9895,-0.9897,-0.9897,-0.9892,-0.9895,-0.9913,-0.9916,-0.9918,-0.9919,-0.9892,-0.9892,-0.9876,-0.9876,-0.9876]}]]